GFSNW_sfc_thetae_117.txt.gz
Theta_e
299 299 299 298 298 298 291 284 275 289 292 280 280 278 281 285 283 285 282 284 282 280 280 279 279 278 282 288 287 282 286 283 278 281 288 290 290 287 287 282 280 283 282 283
298 298 298 298 297 296 287 280 281 289 289 274 274 278 281 282 281 281 282 282 284 284 280 276 280 282 287 287 286 284 287 281 276 279 285 286 283 283 287 287 285 281 279 282
298 299 298 297 298 297 287 279 274 281 284 282 279 278 277 278 283 281 282 282 284 282 280 282 279 281 285 288 287 291 290 283 279 275 277 282 280 282 283 284 279 279 281 283
298 298 297 297 298 298 287 281 276 282 274 278 280 279 278 277 277 282 285 282 282 281 278 280 280 282 284 286 288 289 287 279 281 281 282 282 281 281 282 280 281 278 281 280
299 297 297 297 298 296 284 278 278 282 280 281 279 279 277 277 279 281 280 280 283 283 280 281 279 283 283 282 286 285 286 279 281 279 282 281 279 282 282 282 282 282 282 281
297 297 297 297 299 294 285 285 286 281 278 279 278 277 278 278 281 283 284 284 283 282 284 286 287 287 288 287 284 283 283 281 278 274 279 280 275 280 281 282 284 283 279 284
297 297 297 298 298 293 287 286 286 278 275 278 278 279 280 280 281 280 284 286 283 286 290 290 288 287 287 286 286 287 282 281 280 275 277 269 279 285 284 282 284 285 285 287
298 297 297 298 298 296 289 288 285 280 274 278 279 280 281 282 284 283 284 286 288 290 287 282 280 280 280 282 283 283 285 282 277 274 274 277 279 282 282 281 282 289 288 291
298 297 297 298 298 298 290 288 289 285 276 277 282 281 281 280 280 281 283 287 290 288 283 280 275 273 276 275 279 285 283 284 279 276 271 269 279 287 291 290 278 290 290 289
297 297 298 298 298 299 291 289 291 287 280 282 283 280 281 284 282 279 282 283 284 286 280 277 276 275 280 275 276 278 280 279 276 276 274 278 284 289 291 276 281 292 291 289
297 297 298 298 298 299 293 290 292 289 283 283 285 286 283 283 283 279 282 281 282 280 277 277 277 277 278 277 280 278 279 277 278 278 275 273 290 290 283 289 292 291 294 293
297 297 298 298 298 299 295 290 292 294 287 284 288 289 290 288 288 285 285 282 282 284 280 279 279 277 279 278 274 285 277 281 279 281 280 288 291 290 295 296 292 292 294 296
297 297 298 298 298 299 296 292 293 291 286 285 286 285 290 291 291 292 282 284 286 287 289 285 282 277 281 276 278 281 284 287 283 283 287 289 290 293 295 295 293 294 292 292
297 297 298 298 298 298 297 292 293 292 287 280 281 288 286 290 290 290 290 288 289 288 288 284 282 279 284 280 282 281 285 286 284 284 286 287 291 290 292 291 291 289 288 288
297 297 297 297 298 298 296 294 294 294 287 279 281 286 289 290 289 288 289 288 286 285 283 282 280 284 284 284 284 283 286 284 281 281 284 285 285 286 288 288 288 287 288 287
297 297 297 297 297 297 291 285 292 294 293 283 278 285 285 288 288 287 287 287 286 286 284 283 285 287 285 280 280 285 286 286 285 283 286 288 288 290 289 287 286 285 285 284
297 296 296 296 297 293 286 285 290 295 294 285 278 278 285 289 288 286 286 287 287 286 285 284 285 285 286 282 278 284 284 284 285 284 286 284 286 286 288 287 286 285 284 283
296 296 296 297 297 295 290 293 296 296 289 287 277 277 281 289 285 284 288 285 286 287 286 286 284 286 285 280 283 282 282 283 283 282 285 283 285 286 286 286 286 283 282 281
296 296 296 294 291 287 290 296 297 296 289 279 280 276 275 288 288 289 289 288 282 288 283 285 286 283 281 281 281 280 280 279 279 281 282 282 281 282 283 283 283 282 281 280
296 293 286 283 287 296 296 292 286 284 286 286 279 282 277 285 285 286 285 286 284 280 284 288 283 281 282 282 281 280 279 279 279 277 277 278 278 278 279 281 282 281 281 280
289 284 285 288 296 291 287 282 281 281 279 282 282 282 280 286 282 282 285 283 283 279 282 283 282 278 279 281 281 280 279 278 277 277 277 278 278 277 277 279 279 279 278 277
289 291 294 293 287 284 280 277 279 278 277 281 281 282 284 285 287 284 285 282 281 277 284 282 279 276 278 279 279 279 278 276 275 276 275 275 277 276 276 277 277 277 277 275
293 290 284 284 283 277 274 272 275 276 280 281 283 281 283 284 287 283 282 279 278 282 278 278 276 277 278 278 278 278 277 275 274 274 274 274 274 274 273 273 274 275 274 274
283 283 278 278 275 278 277 279 280 282 281 282 283 283 282 284 283 283 278 280 281 277 275 274 275 276 277 277 278 276 275 273 270 271 271 270 270 270 269 269 270 271 271 271
283 283 276 277 278 280 280 282 282 282 282 284 283 283 284 281 280 281 278 277 275 275 273 273 276 276 276 276 276 275 274 271 270 268 266 265 266 267 266 267 268 270 269 269
279 276 277 279 281 281 282 282 281 284 284 283 283 279 279 278 279 278 277 275 272 270 273 275 276 275 274 274 274 273 272 270 268 267 266 266 265 265 266 266 266 266 268 268
275 272 276 277 277 277 276 278 278 280 283 283 279 275 276 279 276 273 271 270 270 273 274 275 274 274 274 273 272 270 270 270 268 267 267 266 266 265 267 265 266 267 268 267

GFSNW_sfc_thetae_120.txt.gz
Theta_e
299 300 299 298 298 298 296 294 287 296 300 289 289 284 283 284 284 286 284 285 284 282 282 281 281 281 285 290 289 285 288 285 281 284 290 292 290 287 288 284 283 286 285 285
299 299 298 298 298 297 296 290 289 298 296 283 283 283 282 284 283 284 283 282 284 285 282 278 282 283 288 290 288 286 288 283 278 281 287 289 284 287 287 286 287 284 282 285
299 299 298 297 299 296 296 290 284 289 291 290 284 278 279 279 284 283 284 284 286 284 282 285 282 283 287 290 289 291 290 284 280 277 279 284 281 283 285 284 281 283 285 287
299 299 298 297 298 296 297 290 284 286 282 284 283 283 281 275 280 284 286 284 284 283 280 282 281 285 286 289 290 290 288 280 282 283 284 284 283 283 284 282 283 281 285 285
299 298 297 297 299 296 294 286 287 289 285 284 282 281 280 280 281 281 282 282 284 285 281 282 282 284 285 285 288 287 288 281 283 280 283 284 282 283 284 284 285 285 286 285
299 298 298 298 299 297 293 294 293 290 283 282 282 282 281 281 284 285 286 285 284 284 285 288 289 290 290 288 287 286 286 283 280 276 281 281 277 282 283 284 286 286 282 288
298 298 298 298 299 296 297 295 294 288 281 283 282 281 282 282 284 283 287 288 285 288 292 293 293 292 291 290 289 290 285 283 282 277 279 271 282 288 286 284 286 288 288 289
298 298 298 298 299 296 297 297 294 290 283 285 282 280 282 285 286 285 286 287 290 293 291 286 282 283 283 284 287 287 288 284 279 276 276 280 282 285 284 283 283 289 288 291
299 298 298 298 299 298 297 297 299 293 286 283 285 284 284 283 284 284 285 290 293 292 288 284 277 276 279 279 282 287 286 287 281 279 273 271 281 287 291 291 281 293 293 292
299 298 298 298 298 298 297 296 298 294 287 289 287 286 285 288 286 284 286 286 287 291 284 281 279 278 282 277 277 278 280 282 278 278 277 280 287 290 293 279 284 294 292 289
299 298 298 298 298 299 297 296 298 293 288 289 289 289 287 287 286 282 287 286 286 286 281 281 280 279 280 279 280 279 279 279 280 281 278 274 291 290 284 291 296 293 291 292
299 298 298 298 298 299 298 293 298 298 289 289 293 293 294 292 291 288 288 286 284 287 284 285 283 281 282 279 276 286 279 282 280 283 283 292 293 292 296 296 294 293 292 293
298 298 298 298 298 299 298 295 295 292 288 288 289 289 294 296 295 296 286 289 288 288 292 286 285 280 284 277 280 281 284 287 284 283 285 286 287 289 291 293 291 290 291 292
298 298 298 298 298 299 298 296 296 293 290 283 286 293 291 295 296 295 295 292 293 292 292 286 284 281 286 282 282 282 285 287 284 284 285 286 288 288 286 288 289 289 290 291
298 297 298 298 298 299 299 298 295 295 290 283 285 292 293 294 294 293 294 292 291 289 285 284 283 286 285 286 285 284 287 283 281 281 284 284 286 286 288 287 288 288 289 289
297 297 298 298 298 298 295 287 295 297 295 287 282 291 290 292 293 292 291 291 291 289 286 285 287 290 287 282 281 286 287 288 285 283 287 288 288 290 289 289 288 288 288 287
297 298 298 298 298 298 292 290 293 296 296 286 282 284 290 291 292 292 291 292 289 289 286 286 286 286 288 285 280 284 286 286 286 286 287 285 285 284 288 288 288 288 287 286
297 297 297 297 297 296 292 297 297 297 290 288 279 282 286 292 290 289 292 288 287 288 288 290 286 288 287 282 285 285 284 285 284 285 286 285 286 286 286 287 288 287 286 284
296 297 297 296 293 288 292 297 297 297 291 283 281 281 281 292 292 292 290 289 283 291 285 286 288 286 282 282 283 282 282 281 281 284 284 284 283 283 283 284 284 283 283 284
296 295 288 284 288 296 297 292 287 285 288 287 282 287 283 289 290 288 286 287 286 282 286 290 285 284 283 283 283 282 282 281 282 280 279 280 281 280 281 281 282 282 281 282
291 285 285 294 296 293 289 282 282 283 281 285 285 286 284 291 284 284 290 286 287 282 285 284 284 281 280 283 282 282 282 281 280 280 280 280 280 279 279 280 281 281 280 279
291 292 294 293 289 287 282 281 283 281 280 286 282 284 286 289 292 287 287 284 284 280 288 284 281 278 280 281 280 280 280 279 279 279 278 278 278 278 278 278 278 278 278 277
293 289 286 284 285 279 278 275 277 280 284 287 286 283 287 289 289 286 285 282 280 288 282 281 278 279 280 281 281 280 279 278 278 277 277 277 276 276 275 274 275 275 276 276
286 283 280 280 279 281 282 282 283 287 287 287 287 285 286 288 284 286 281 284 284 279 277 277 279 279 279 280 280 279 277 276 273 274 275 273 273 273 272 271 272 273 273 274
283 284 280 281 286 285 286 287 287 288 291 289 286 286 287 285 284 284 282 279 277 280 279 279 279 279 279 279 278 278 277 275 274 273 271 270 270 270 271 270 271 272 272 272
283 281 281 284 284 283 285 285 284 288 289 291 291 285 282 283 284 280 279 278 278 278 279 280 281 278 277 277 277 277 276 275 274 273 272 272 269 269 270 270 270 270 271 271
280 279 280 280 283 284 282 284 284 286 287 284 286 281 282 284 281 279 281 280 278 278 279 281 279 278 278 277 276 275 275 275 274 273 273 272 271 270 271 270 271 271 272 271

GFSNW_sfc_thetae_123.txt.gz
Theta_e
299 299 300 298 298 298 296 297 292 299 303 294 293 287 285 284 286 288 286 286 286 284 284 283 283 283 286 290 290 285 288 285 280 283 290 293 291 289 287 284 283 286 285 285
299 300 300 298 298 297 298 295 292 301 301 288 287 286 285 286 285 285 285 284 286 287 284 281 284 284 289 290 289 286 289 284 278 280 286 292 287 287 288 287 286 282 282 285
299 299 299 298 298 297 298 295 288 294 295 293 288 283 283 282 286 285 286 285 287 286 284 287 283 284 288 291 291 293 291 285 281 277 280 284 282 284 287 285 281 283 285 287
299 299 299 297 299 297 298 294 290 291 287 288 287 286 284 282 281 286 288 285 285 285 281 283 283 285 287 290 292 291 289 281 284 284 285 284 284 283 285 283 284 281 286 286
299 299 298 297 298 298 298 289 291 292 289 288 286 282 283 282 283 281 284 284 286 287 283 284 281 285 285 285 289 288 289 281 284 281 284 285 282 284 285 285 285 285 287 287
300 299 298 298 299 297 297 297 297 296 285 286 286 285 283 283 285 287 288 288 287 285 287 289 291 291 291 290 288 287 286 284 281 277 283 283 279 283 284 285 287 286 282 288
299 298 298 298 299 297 299 298 297 293 285 287 286 284 285 284 286 284 288 289 287 290 294 294 294 293 292 292 290 291 286 284 283 278 281 272 283 288 288 286 287 288 289 290
299 298 298 298 299 297 299 300 298 294 287 288 284 284 285 287 288 288 287 289 292 295 292 287 284 284 285 286 288 288 289 285 280 276 276 281 283 287 287 286 285 290 290 291
299 299 298 298 299 298 299 299 301 297 291 286 287 286 287 285 287 287 288 292 295 294 289 285 279 277 280 279 282 288 287 288 282 280 275 273 282 288 292 292 282 294 295 294
299 298 298 298 299 299 299 299 301 296 290 291 289 287 288 290 288 286 289 289 289 293 286 282 280 279 284 278 277 278 282 283 280 280 278 281 289 292 294 280 284 295 294 291
300 299 298 299 299 299 297 297 301 295 291 291 292 291 289 290 289 285 289 289 289 288 283 282 282 281 282 280 281 280 280 279 280 281 279 276 290 292 285 290 295 293 293 289
298 299 299 299 299 299 298 293 300 300 293 291 296 296 296 294 293 290 291 288 286 289 285 286 285 282 284 281 277 286 279 282 280 282 282 289 289 287 289 291 292 291 290 290
298 298 299 299 299 299 298 295 297 298 291 291 292 291 297 299 298 298 288 292 291 291 294 289 286 281 285 279 281 283 285 288 284 283 285 285 287 288 288 288 287 289 291 292
299 299 299 299 299 299 299 296 298 297 292 286 289 296 294 297 298 297 297 294 295 293 291 288 286 283 288 283 284 283 287 288 284 285 286 287 289 288 288 289 289 290 292 292
298 299 299 298 298 299 300 299 300 300 291 285 288 294 296 297 297 295 296 295 292 289 288 287 284 288 287 288 287 285 288 283 282 282 286 284 287 287 290 288 288 289 289 289
298 298 298 298 299 299 295 289 297 299 297 289 283 294 292 294 295 294 293 294 292 289 287 287 288 291 288 283 282 287 288 287 286 285 288 288 289 290 289 288 288 289 288 288
298 298 298 299 299 298 293 291 295 297 298 289 283 286 292 294 294 295 293 294 291 289 287 286 287 288 289 285 281 287 287 288 288 288 288 286 287 285 287 288 289 290 289 288
297 298 298 298 298 297 293 299 298 298 293 292 281 284 288 295 291 289 293 288 288 287 288 290 288 290 289 284 287 287 287 288 287 287 288 287 288 288 288 288 288 287 286 285
297 297 297 296 294 291 294 298 298 300 291 285 282 282 283 294 293 294 292 291 284 291 286 287 289 287 284 285 285 284 285 284 284 287 288 287 286 286 286 286 285 283 283 283
297 294 290 285 290 297 297 293 289 288 288 287 284 289 286 291 291 290 287 288 286 283 287 292 287 288 285 286 286 286 285 285 285 283 282 283 283 283 283 284 284 283 281 281
291 287 288 295 298 294 290 284 284 285 282 287 287 288 286 293 286 287 291 288 288 282 286 285 285 283 282 284 284 285 285 284 283 283 283 283 282 281 281 282 282 281 280 279
293 294 295 294 290 287 283 282 285 283 281 288 286 287 289 291 293 288 289 285 287 280 290 284 283 280 283 284 283 283 283 282 281 281 281 280 280 280 279 279 278 278 278 278
296 292 286 285 285 279 278 277 280 282 287 290 289 285 288 290 291 288 286 281 282 290 284 283 281 282 283 284 284 282 281 280 280 279 279 278 278 278 276 275 275 276 276 276
287 284 280 281 280 282 284 285 285 289 291 291 290 286 286 289 285 287 281 286 286 281 279 280 282 282 282 283 282 282 280 278 276 277 277 275 274 274 274 273 274 274 274 274
284 285 279 282 288 290 290 291 291 292 294 292 289 288 289 286 284 285 285 281 279 282 281 281 282 282 282 281 281 280 279 277 277 277 274 274 272 272 273 273 274 274 273 274
285 284 282 286 286 285 286 287 287 292 293 293 291 286 282 283 285 282 281 280 279 281 282 282 282 281 280 280 279 279 278 277 277 277 276 275 273 272 273 275 274 273 273 272
283 283 286 284 284 284 284 287 287 290 289 285 287 281 282 287 282 281 286 282 281 281 281 282 281 279 279 279 279 278 278 278 277 277 276 275 275 275 275 274 275 274 274 273

GFSNW_sfc_thetae_126.txt.gz
Theta_e
300 300 300 299 298 298 296 298 292 300 304 293 292 287 287 285 287 289 287 287 286 284 284 282 282 282 285 289 289 284 287 284 279 282 288 291 289 286 287 279 280 283 284 284
300 299 300 298 298 297 298 295 291 301 301 289 288 287 286 287 286 286 286 284 286 286 284 281 284 285 290 291 289 285 287 282 275 279 284 288 285 286 287 286 285 280 279 284
299 300 299 298 298 298 296 296 290 293 295 294 289 285 284 283 288 286 286 286 287 286 284 286 283 284 288 291 289 292 292 284 279 275 279 283 281 284 286 285 280 281 281 284
300 300 299 298 298 298 297 295 292 293 288 288 288 288 285 283 282 287 288 286 286 284 281 283 282 285 286 288 291 290 289 280 282 283 284 284 283 282 283 282 284 280 283 284
299 299 299 298 298 298 296 290 290 293 289 289 288 283 284 283 285 285 284 284 286 286 283 285 282 284 285 284 288 287 288 280 282 281 284 284 282 284 284 284 285 285 285 284
299 299 298 298 298 297 296 296 297 295 287 288 287 286 285 284 286 287 288 287 286 285 287 289 290 291 290 289 287 286 286 283 281 277 282 282 278 282 284 284 286 285 281 286
300 299 298 298 298 298 297 298 296 294 285 287 286 286 286 285 286 285 288 289 287 290 294 294 293 292 291 291 288 290 285 283 282 278 280 272 282 288 289 285 286 288 287 289
299 298 298 298 299 298 297 299 297 294 287 288 286 286 285 287 288 287 288 289 292 294 291 286 283 284 284 286 288 288 288 285 280 276 276 280 283 287 286 285 284 292 291 291
300 298 298 298 298 298 298 300 301 296 292 286 289 286 287 285 286 287 288 293 295 294 288 285 278 276 280 279 282 288 287 287 282 280 275 272 281 285 291 292 281 292 292 289
300 299 298 298 298 299 298 298 302 296 292 291 290 287 287 290 288 286 288 289 290 293 285 281 279 278 284 277 277 278 281 281 279 280 278 281 284 288 291 280 280 291 291 289
300 299 298 298 298 298 298 297 301 295 291 292 291 292 290 290 288 285 289 288 289 287 282 282 281 280 282 281 282 281 279 278 278 279 276 273 286 287 280 283 288 288 289 289
300 299 298 299 298 299 298 294 299 299 292 292 297 296 297 295 293 290 290 288 287 289 285 285 284 282 284 281 277 286 278 282 280 281 280 287 287 286 288 288 287 287 289 291
298 299 298 299 299 299 298 296 297 297 291 291 292 291 297 298 297 298 288 291 292 291 293 288 286 281 284 279 281 282 286 289 283 282 285 285 286 288 289 289 288 289 291 290
299 298 299 299 299 299 299 297 298 295 292 286 290 297 295 298 298 297 296 294 295 293 291 287 285 282 288 283 284 284 286 287 283 284 286 286 288 288 288 289 289 288 289 289
299 298 299 299 299 299 299 301 301 300 291 285 288 294 296 297 296 294 295 294 292 289 288 286 284 287 286 287 287 286 288 284 281 281 286 284 286 288 289 288 287 288 287 287
299 299 298 299 299 300 295 290 298 299 297 288 283 294 293 295 295 294 293 293 292 290 288 287 288 291 287 283 282 287 288 288 288 285 288 289 289 289 289 287 288 289 287 287
298 299 299 299 299 299 292 291 295 298 298 289 283 285 292 294 294 293 292 294 291 290 289 287 287 287 289 285 281 288 288 289 289 289 288 285 287 286 288 288 288 289 287 286
298 298 299 299 298 296 293 298 297 298 292 291 282 283 288 294 289 288 293 289 290 289 287 289 287 289 289 283 287 288 288 288 288 287 289 287 288 288 287 288 287 285 283 283
298 298 298 296 294 291 294 298 298 300 292 284 284 281 283 294 291 292 291 291 284 290 285 286 288 286 283 286 286 286 286 285 284 286 287 286 285 284 284 285 284 282 281 281
297 295 289 285 292 298 297 294 290 288 289 288 283 288 285 290 291 288 288 288 284 283 286 291 286 286 287 286 287 287 285 285 285 282 281 282 281 281 281 282 282 281 279 279
292 286 288 295 298 294 290 283 283 285 281 286 286 286 285 292 286 286 291 286 287 281 286 285 284 282 283 286 286 287 285 284 283 283 282 282 281 279 279 279 279 278 278 277
293 294 296 294 290 286 281 281 284 283 281 288 286 287 288 291 293 288 289 284 286 279 289 284 281 281 285 286 285 284 283 283 282 282 280 279 279 278 277 277 276 275 277 276
297 291 286 285 284 278 277 276 280 281 287 290 290 287 289 291 291 288 286 280 281 290 284 281 281 283 285 285 284 283 282 280 280 279 279 278 276 276 276 274 274 275 275 275
285 283 278 279 279 281 283 284 285 291 292 291 290 286 286 288 286 286 280 285 286 280 279 279 282 283 283 283 283 282 280 278 277 277 276 275 274 273 274 272 274 273 273 273
284 284 278 281 286 289 290 293 292 293 294 292 289 288 288 286 284 284 284 281 279 281 280 282 283 283 283 282 281 280 279 277 277 278 275 275 272 272 273 274 274 273 274 272
286 284 281 286 287 284 284 286 288 293 293 294 291 286 282 282 284 281 280 280 279 281 281 282 282 281 281 280 280 279 278 278 278 278 277 276 273 272 274 275 275 271 274 271
283 283 285 284 285 284 285 288 288 291 290 285 286 281 280 287 282 281 285 280 281 282 281 282 281 280 279 279 279 278 278 278 278 277 276 276 276 276 276 274 275 275 275 272

GFSNW_sfc_thetae_132.txt.gz
Theta_e
302 302 300 299 298 299 295 291 281 294 298 286 286 280 286 288 286 289 287 286 284 281 281 280 281 281 284 288 287 282 285 280 276 278 284 287 285 282 282 276 275 279 279 278
302 301 299 298 298 298 292 288 285 294 295 280 278 285 285 286 286 285 284 283 285 284 282 278 282 283 288 288 286 283 285 279 270 275 279 285 282 284 284 284 282 277 274 275
300 300 299 298 297 298 292 289 281 286 289 288 284 283 284 282 287 285 285 284 286 283 281 283 280 282 286 287 286 291 288 281 277 273 276 280 279 282 283 282 277 277 278 278
300 299 299 298 297 298 293 289 284 288 281 282 284 285 284 282 281 287 286 284 284 282 279 280 279 282 283 285 288 287 285 276 280 281 282 282 282 281 281 279 280 277 280 280
299 300 298 298 299 298 291 284 284 287 285 286 283 284 283 283 284 284 283 282 284 284 280 278 277 280 280 281 284 283 285 274 278 277 281 282 279 281 282 282 282 281 282 283
301 300 298 298 299 297 290 291 291 287 283 282 280 280 284 284 285 287 287 284 281 281 283 284 284 285 285 284 282 281 284 282 278 275 279 279 276 279 282 283 284 284 280 284
299 299 298 299 299 296 291 291 291 283 279 282 283 285 285 283 285 283 286 287 283 286 289 288 287 286 287 287 286 287 282 279 279 276 278 269 279 284 285 283 282 284 285 286
299 298 299 299 298 298 291 291 290 286 280 284 285 285 284 285 287 284 285 287 288 288 286 280 279 279 281 284 285 285 284 281 278 272 275 278 280 281 281 280 280 284 283 285
299 298 299 299 299 299 293 292 293 290 282 280 287 283 284 279 280 282 286 289 289 287 280 278 276 272 277 276 279 284 284 282 275 276 272 269 278 283 286 285 276 284 286 285
298 298 299 299 299 300 294 291 292 290 280 285 285 280 281 285 282 279 283 284 284 285 275 271 274 275 281 274 270 271 274 272 268 272 271 276 282 284 286 274 273 285 287 286
298 298 299 299 300 300 293 289 292 289 282 286 289 290 284 284 282 279 282 281 280 278 274 272 275 274 276 274 277 273 274 271 267 272 264 266 285 284 277 282 286 286 286 286
299 298 299 299 300 301 295 287 292 293 286 285 290 292 292 290 288 284 283 281 281 278 274 272 273 275 274 275 271 280 271 277 272 278 278 285 287 285 287 287 285 286 286 287
299 299 299 299 300 300 296 289 289 288 282 283 285 285 291 293 291 290 283 284 287 284 284 277 276 274 276 269 273 275 281 286 278 278 282 284 285 287 287 288 287 288 287 286
299 299 299 300 300 300 297 291 292 289 285 278 284 294 290 293 292 290 289 288 288 287 283 277 275 276 281 277 278 276 279 286 280 278 283 285 287 286 287 287 288 287 286 285
299 299 299 299 299 299 294 292 293 292 286 278 281 288 291 293 291 290 289 288 285 281 278 274 275 280 279 279 280 279 284 282 274 273 283 283 284 286 289 285 285 284 283 283
299 299 299 299 299 296 289 284 292 293 290 280 277 286 288 289 290 289 288 287 284 282 280 278 281 284 280 273 275 283 285 286 285 282 287 287 287 286 286 284 284 283 282 282
299 299 299 299 298 291 286 284 290 295 290 280 275 279 286 290 289 286 285 286 284 284 280 277 280 281 283 275 276 284 286 287 287 288 286 284 282 281 283 283 282 282 281 280
299 299 299 299 298 295 289 291 296 294 287 284 271 275 281 288 282 282 285 282 283 282 281 280 280 281 280 277 284 284 285 284 284 283 283 282 282 281 281 281 280 278 277 277
298 299 297 291 289 284 289 298 297 292 286 277 273 273 272 287 285 287 286 284 276 282 275 278 280 279 280 282 283 281 282 282 282 281 281 280 278 278 278 277 276 275 275 276
297 290 283 277 285 297 294 288 284 281 284 282 275 280 276 286 281 285 283 283 282 278 280 282 278 277 283 283 283 282 281 281 281 278 276 277 276 276 276 275 275 274 274 275
286 283 284 289 297 288 282 277 275 276 274 280 280 280 277 284 278 276 281 277 279 273 278 280 280 279 282 282 281 281 280 279 278 277 277 276 276 274 274 274 274 273 273 272
288 290 292 290 285 282 274 273 277 278 277 280 277 279 280 280 284 278 277 276 275 273 285 281 279 280 283 280 279 278 278 277 277 276 275 275 275 275 274 273 272 272 273 270
291 286 280 278 278 269 268 268 274 274 279 279 279 277 280 281 282 279 273 271 276 281 275 276 277 280 283 280 278 277 278 277 276 276 275 274 274 274 274 273 273 270 269 268
279 275 274 275 274 275 277 277 278 280 279 281 281 279 278 277 277 274 269 275 278 269 268 275 276 278 277 278 278 277 276 276 273 275 275 274 273 271 269 265 267 263 266 265
276 278 269 273 277 278 281 280 279 283 282 283 281 279 278 273 271 276 276 273 275 273 272 274 276 279 277 277 277 276 276 272 271 270 268 267 265 265 265 265 265 267 262 261
279 277 274 277 275 276 282 283 284 283 283 283 282 275 271 271 277 276 274 272 270 273 276 278 278 277 277 277 277 275 273 272 269 267 267 265 263 263 264 263 264 264 261 260
275 278 275 274 281 281 282 283 283 282 280 282 282 275 275 278 271 273 278 274 277 277 278 279 278 277 276 276 275 272 273 272 269 266 265 266 265 263 266 265 263 263 265 262

GFSNW_sfc_thetae_135.txt.gz
Theta_e
305 304 303 302 301 300 296 291 283 294 298 286 286 279 284 289 286 288 286 284 282 280 281 279 280 279 283 287 286 280 283 280 275 277 283 285 283 281 279 271 270 277 276 277
303 302 301 300 301 299 292 287 286 294 295 280 279 284 285 286 284 283 283 283 284 285 281 278 281 282 287 286 284 281 283 278 270 275 278 283 280 283 283 283 281 276 273 276
302 301 300 300 300 300 294 286 279 285 288 288 283 281 282 282 287 284 284 285 285 282 280 282 280 281 285 286 284 289 288 280 277 272 275 278 277 280 283 281 275 277 277 277
301 300 299 299 299 299 294 289 282 287 281 281 283 284 283 281 281 285 287 284 284 282 278 280 279 281 281 284 287 286 284 276 279 280 281 281 280 280 281 279 280 277 279 279
300 299 298 298 299 299 292 285 284 286 283 285 284 284 282 282 283 284 283 281 284 283 280 278 277 280 280 280 283 282 284 274 277 277 281 281 279 279 280 281 282 282 281 281
300 299 298 298 299 298 290 291 291 287 283 282 282 281 283 284 285 286 286 283 281 281 283 283 283 283 283 283 281 280 281 280 278 274 279 279 276 278 280 282 282 282 278 282
300 299 298 299 299 298 292 291 290 284 280 282 282 285 285 284 285 283 286 285 283 285 287 286 285 284 285 285 283 284 281 279 279 275 278 269 278 284 283 282 281 282 283 284
299 298 299 299 299 298 292 291 290 285 279 284 284 284 284 286 286 283 285 286 287 287 284 279 279 279 281 283 284 284 284 280 277 271 274 277 279 280 280 279 278 282 283 284
299 299 299 299 299 299 293 291 293 288 283 280 286 284 284 280 279 281 284 288 287 285 280 278 276 272 277 276 278 282 281 280 273 275 272 269 277 282 285 285 275 283 284 283
299 299 299 299 301 300 293 291 292 288 280 285 285 281 281 283 281 279 282 283 283 283 274 271 273 275 279 274 270 268 273 271 267 272 263 270 281 283 285 274 272 284 285 284
299 299 300 301 301 299 293 289 291 289 283 285 288 288 283 282 282 279 281 280 280 277 273 272 275 274 276 274 277 270 273 271 267 270 262 264 284 284 276 281 286 286 286 286
300 300 300 301 301 299 294 288 292 292 286 285 289 290 290 288 287 283 282 280 280 278 273 271 272 275 273 274 270 278 269 272 271 274 273 282 286 283 287 287 285 286 285 285
300 300 301 301 301 299 295 289 289 287 283 284 283 283 289 292 290 290 282 283 286 282 282 275 275 274 276 268 273 274 278 286 280 275 280 283 283 287 286 286 286 287 286 284
299 300 300 301 301 300 296 289 289 288 284 278 283 292 288 291 291 289 288 287 286 284 282 276 274 275 280 276 277 275 276 284 279 275 283 284 286 285 286 286 286 284 284 284
299 300 300 300 300 298 294 291 290 290 285 279 281 287 290 291 290 289 288 287 283 281 277 273 274 279 278 279 279 273 282 280 274 272 281 281 284 285 287 284 282 282 281 280
299 300 300 299 298 295 289 283 290 292 288 282 277 285 287 289 289 288 286 285 282 281 279 277 280 283 279 272 274 282 284 285 284 281 286 286 285 284 283 282 281 280 279 279
299 299 299 298 296 291 286 283 289 293 289 280 276 279 285 289 287 284 284 284 282 282 279 277 279 280 281 275 275 282 285 286 285 285 287 280 280 278 281 280 280 280 279 278
299 299 299 298 298 295 288 291 296 293 286 282 273 277 281 286 282 281 283 281 282 281 280 280 279 280 278 274 281 282 283 283 281 281 281 280 280 279 278 278 277 276 275 276
299 298 295 291 288 285 287 297 294 290 286 276 273 275 273 286 284 286 284 281 275 281 275 277 279 277 277 281 281 281 281 282 280 280 279 279 277 277 276 275 275 274 273 274
296 290 283 277 285 296 293 287 280 280 280 280 276 280 276 283 282 283 280 280 281 278 279 281 276 277 280 283 282 280 280 282 281 278 277 277 276 275 275 274 274 273 273 273
286 282 284 288 295 287 281 274 275 275 274 278 280 280 279 283 278 279 279 274 279 273 278 278 278 278 279 280 279 280 279 278 277 277 276 275 275 274 274 273 273 273 272 271
287 290 291 289 284 278 274 269 276 278 277 279 277 279 280 280 282 278 278 275 277 275 283 280 275 279 279 278 278 278 277 277 276 276 275 275 275 274 274 273 273 272 271 268
289 285 279 278 277 269 268 269 273 273 279 277 278 275 279 279 281 277 271 269 272 280 278 276 276 281 279 277 277 276 277 276 276 275 275 274 274 274 273 272 272 270 268 267
279 274 272 271 271 273 276 277 278 279 279 279 280 277 278 276 276 273 268 273 277 272 269 274 273 278 277 277 277 276 275 275 273 275 274 273 272 271 269 264 263 263 265 264
276 276 267 272 275 279 281 281 281 284 279 281 280 278 277 272 271 275 274 271 275 276 270 273 273 277 277 277 277 276 276 270 270 268 266 266 265 265 265 264 263 265 263 261
278 277 275 275 276 280 281 283 283 284 283 282 282 274 269 269 272 273 269 273 269 269 271 275 278 278 278 277 277 276 274 269 267 265 265 264 262 263 264 261 262 260 259 259
275 278 278 274 276 280 278 283 281 282 281 279 277 270 272 276 272 274 276 271 270 272 276 278 279 278 276 275 274 272 273 272 269 266 265 264 263 263 265 264 262 262 262 263

GFSNW_sfc_thetae_138.txt.gz
Theta_e
309 307 305 304 303 301 298 292 283 294 298 285 283 280 282 288 285 288 285 283 281 279 280 279 279 279 282 285 285 279 282 279 274 276 281 283 282 279 277 270 271 275 275 273
307 305 304 302 301 300 294 287 287 294 294 276 276 282 283 285 284 284 283 282 283 284 280 277 280 281 285 284 282 280 282 277 269 274 276 281 279 280 282 281 279 272 270 275
306 304 303 302 301 301 294 288 281 286 290 287 281 282 282 281 286 284 285 284 285 281 280 281 279 280 285 285 284 288 287 279 276 270 274 277 276 279 280 280 275 275 275 277
304 303 302 301 301 300 296 287 283 285 280 280 283 284 283 281 281 286 285 283 282 280 279 279 279 280 281 284 288 285 283 275 278 279 279 279 278 278 278 278 279 276 279 280
302 302 301 300 301 300 292 285 282 287 285 286 283 284 281 281 282 283 282 281 283 283 279 279 278 280 280 280 282 281 283 272 276 276 280 279 278 278 278 281 280 279 281 281
301 301 301 300 301 298 289 289 289 288 284 281 280 281 283 282 284 285 285 284 281 281 282 283 283 283 282 282 281 280 281 279 278 274 278 278 275 278 278 280 280 280 277 281
301 300 300 300 301 297 291 291 289 283 280 282 282 285 285 282 283 282 285 285 282 285 287 286 285 283 282 282 281 282 280 280 279 275 277 268 276 282 281 280 280 282 282 283
299 299 299 300 301 299 292 292 289 286 280 284 284 284 284 285 285 283 284 285 286 287 284 279 279 278 280 282 283 281 282 280 276 270 272 276 278 280 279 278 278 282 281 283
300 300 300 300 300 299 293 291 292 289 284 281 286 284 285 281 280 281 284 287 286 285 280 278 275 271 277 276 278 282 281 280 273 274 271 268 277 281 284 284 274 283 283 283
300 300 300 301 301 300 293 290 292 288 282 285 285 281 282 283 281 280 282 282 282 283 274 272 273 275 279 274 269 266 272 271 266 273 262 269 280 282 285 274 273 285 284 284
300 300 301 302 302 299 293 289 291 289 283 284 288 287 283 283 282 279 281 279 279 277 273 272 274 274 276 273 276 270 267 269 265 269 262 264 283 282 277 279 284 286 285 285
300 301 301 301 300 298 294 289 291 291 286 285 289 289 289 288 287 282 281 280 279 277 272 271 273 274 273 274 269 278 270 271 269 272 271 280 286 283 284 286 284 286 285 283
301 301 301 301 300 298 295 288 288 288 285 286 285 285 289 290 289 289 282 282 284 281 281 274 275 274 276 268 272 274 276 285 280 276 279 281 282 285 285 285 284 285 285 283
300 301 301 300 300 299 295 288 289 288 284 279 283 291 287 290 290 288 287 285 285 283 281 276 274 275 279 276 276 275 274 283 281 276 281 282 285 286 284 285 284 283 283 282
300 300 300 299 299 297 293 290 289 289 285 279 281 286 289 290 289 287 287 285 282 280 278 273 274 279 278 278 279 271 280 279 275 273 278 276 280 283 285 282 280 281 280 278
300 300 299 298 297 294 288 282 289 290 287 282 277 284 285 287 288 286 285 284 282 280 278 276 280 282 278 272 274 281 283 283 282 281 284 284 282 281 282 280 280 279 278 277
299 299 298 298 297 292 285 282 287 292 288 281 276 279 283 287 286 283 283 283 282 281 278 276 279 280 280 274 275 281 283 284 283 284 282 280 279 278 279 278 278 278 277 277
299 299 298 298 297 293 288 291 294 290 283 282 273 277 281 285 281 281 282 281 281 280 279 279 279 280 278 274 280 281 281 281 280 280 281 279 279 278 276 276 276 275 274 274
298 297 296 290 287 283 287 295 292 289 284 275 274 275 273 285 284 285 284 281 274 281 274 277 278 277 275 279 281 280 280 280 279 279 279 278 277 276 275 274 274 273 272 272
295 289 282 279 286 295 291 285 279 278 279 280 277 279 275 282 283 282 278 278 278 274 279 280 275 276 281 281 283 281 280 280 280 277 276 276 275 275 274 273 273 272 272 272
286 281 284 288 294 285 280 273 273 274 273 279 279 280 278 282 277 281 278 276 278 272 277 276 275 276 278 279 280 280 279 278 277 276 276 275 275 274 274 273 273 272 271 271
288 289 290 288 282 277 274 268 275 277 276 279 277 279 280 279 282 279 280 276 278 275 282 275 273 275 277 277 277 277 277 276 275 276 275 275 275 274 274 273 273 272 271 266
289 284 279 279 276 268 265 266 271 272 278 278 278 274 278 279 280 277 271 268 270 280 277 275 275 279 279 278 277 276 276 276 275 274 274 274 274 274 273 272 272 269 268 265
279 274 271 271 269 271 274 276 277 278 279 279 279 277 277 276 275 272 268 272 276 270 267 273 274 279 278 277 277 276 275 274 272 274 274 273 272 270 267 263 263 262 265 262
276 277 269 270 274 279 280 281 283 283 279 281 279 277 276 271 271 274 273 268 268 272 269 271 274 278 277 277 277 276 275 272 270 267 266 264 263 264 263 262 262 265 260 259
279 277 275 278 280 280 282 283 282 284 282 280 279 272 268 268 272 271 269 270 267 269 271 277 275 277 278 278 278 276 273 271 266 265 264 262 261 262 262 259 259 258 258 258
276 275 278 276 275 278 281 278 281 283 278 273 273 268 270 275 272 271 274 268 270 270 277 272 275 277 276 275 274 272 272 271 268 266 266 265 263 262 265 264 261 260 259 258

GFSNW_sfc_thetae_141.txt.gz
Theta_e
306 307 309 306 303 301 299 292 283 295 300 286 287 282 285 288 285 288 285 285 283 281 281 280 280 280 283 288 286 282 285 281 276 278 284 285 284 282 281 276 273 278 276 277
306 307 308 304 301 302 295 287 287 296 296 280 282 285 284 286 285 285 284 282 284 285 282 279 282 283 286 286 285 283 285 280 274 276 280 283 281 283 283 282 281 276 274 277
306 307 306 303 302 302 296 288 282 287 290 289 284 282 282 281 286 285 285 284 286 283 281 283 281 281 285 286 285 290 288 281 277 273 276 280 278 280 282 281 277 277 278 280
305 307 305 302 302 302 295 288 284 287 281 283 284 285 284 281 281 286 287 284 284 283 279 280 280 282 282 285 290 287 286 278 280 281 281 281 280 280 281 279 280 277 280 280
306 306 303 302 302 303 293 285 284 287 284 286 284 285 282 282 283 285 283 283 284 283 281 282 279 281 282 282 285 284 285 278 280 278 281 281 279 280 280 281 282 281 281 281
306 304 302 301 302 301 293 291 292 289 284 285 282 282 283 283 285 286 287 285 284 283 283 285 286 285 285 286 284 283 282 280 278 275 280 280 276 279 279 280 281 280 278 282
303 302 301 302 301 299 294 291 290 286 281 284 283 285 285 284 284 283 285 287 284 286 289 289 288 285 284 284 284 285 281 281 280 276 278 270 279 283 282 281 282 282 282 283
303 302 301 301 301 298 294 293 291 287 282 285 285 284 284 286 287 284 285 286 288 289 287 283 281 281 282 283 284 283 285 282 278 274 274 277 279 281 280 278 278 283 282 283
301 300 301 301 300 299 295 293 293 291 285 283 287 285 285 282 282 283 284 287 289 288 284 282 276 274 278 278 279 283 283 282 279 277 271 270 279 282 285 284 276 284 284 283
300 300 301 301 300 299 295 291 293 290 284 286 288 283 283 286 284 282 284 285 285 286 280 278 277 276 281 276 274 273 277 276 275 275 272 275 282 284 286 275 276 284 285 284
299 299 299 300 301 299 294 289 292 291 285 286 289 289 285 285 285 282 284 283 283 281 278 277 278 278 279 278 278 275 276 274 274 273 270 271 284 283 279 282 285 286 286 285
300 300 301 302 301 299 295 290 292 293 288 287 290 289 289 291 289 285 284 283 281 282 278 277 279 279 279 278 274 279 276 279 278 278 279 282 286 283 285 286 284 285 284 284
301 301 301 301 300 299 295 290 290 292 288 288 287 286 291 292 291 293 285 285 286 284 284 280 281 279 280 276 277 279 280 284 280 280 282 284 284 286 286 286 286 286 284 283
300 301 301 300 300 298 295 290 290 290 287 282 284 292 289 292 292 290 290 287 286 286 285 282 280 279 282 279 280 280 281 284 281 280 282 284 284 286 287 287 285 283 283 281
300 300 300 299 299 297 293 291 290 291 288 282 283 288 290 290 290 288 289 288 286 285 284 281 279 282 282 281 282 279 284 282 280 280 282 283 283 285 286 284 282 281 280 279
299 299 299 298 297 293 290 286 291 291 291 284 280 286 287 288 289 288 287 286 285 284 283 282 283 284 283 279 278 283 284 286 285 285 286 285 284 283 283 281 281 280 278 278
299 299 299 298 297 293 285 285 289 293 290 284 280 281 285 288 287 286 286 286 285 285 283 283 283 283 284 281 278 283 286 286 286 288 285 281 282 280 280 279 279 279 277 277
298 298 298 298 297 294 288 291 294 290 285 285 276 279 283 288 284 283 285 284 285 284 283 284 283 284 282 278 282 284 284 283 282 282 283 282 280 279 277 277 277 275 275 275
298 297 295 291 288 285 288 295 291 289 286 278 278 277 276 287 285 286 285 283 280 283 281 282 283 280 278 281 283 283 282 283 280 280 280 280 278 277 276 275 275 273 273 273
294 288 283 279 288 295 291 284 280 279 280 282 279 282 279 285 284 283 283 283 280 278 281 283 280 280 282 282 285 284 283 282 282 279 277 277 276 276 275 274 274 273 273 273
286 283 285 288 294 285 280 274 275 276 275 281 281 282 281 285 280 281 281 280 280 275 279 279 278 278 280 281 281 281 281 280 279 279 278 277 277 275 274 274 274 273 273 271
288 289 289 287 282 276 273 271 276 278 276 280 281 281 283 283 285 281 282 279 279 275 282 278 276 279 279 279 278 278 278 278 277 277 276 276 275 275 275 274 273 273 272 269
288 283 277 278 275 269 267 268 273 275 279 280 281 279 283 283 283 279 277 275 275 283 278 277 279 280 279 279 278 277 277 277 276 275 276 275 275 275 274 273 272 271 271 268
278 272 268 270 267 273 275 277 278 279 280 281 282 280 282 280 278 275 274 276 279 274 272 276 279 281 280 279 278 277 276 276 275 275 274 273 273 272 269 267 267 268 269 266
277 276 267 270 276 280 281 283 283 282 282 283 281 280 280 276 275 277 276 274 272 274 274 277 279 281 279 278 278 277 276 274 274 273 271 269 268 269 269 267 267 268 266 266
280 276 277 280 280 281 282 282 281 284 282 282 281 276 274 274 275 274 273 273 271 276 278 280 279 278 278 278 278 278 276 274 272 270 270 269 267 269 269 266 266 264 265 266
277 278 278 278 281 280 280 282 282 284 282 278 277 272 273 277 274 274 276 274 277 277 278 278 279 278 278 278 276 274 274 273 271 269 270 270 268 267 270 269 269 268 267 265